Location: Baller�as
(41.9020°N, 0.1554°W)
Time: 12:34:29
(UTC+00:00)

Sich 1 - Pass Details

Date: 10 August 2020
Orbit: 593 x 626 km, 82.5° (Epoch: 21 September)

Event Time Altitude Azimuth Distance (km) Brightness Sun altitude
Rises 20:25:00 0° 189° (S) 2,890 6.2 -13.5°
Reaches altitude 10° 20:27:13 10° 191° (S) 1,991 5.4 -13.9°
Maximum altitude 20:31:38 80° 278° (W) 642 3.2 -14.5°
Drops below altitude 10° 20:36:06 10° 6° (N) 2,010 6.1 -15.2°
Sets 20:38:21 0° 7° (N) 2,921 7.0 -15.5°
